Flag for Germany Weather past 2 weeks in Minden, North Rhine-Westphalia, Germany

Now
41 °F

Sprinkles. Partly sunny.


Feels Like: 33 °F
Forecast: 38 / 42 °F
Wind: 14 mph from Northwest

Location: Bueckeburg

Current Time: Jan 27, 2015 at 2:11:16 PM

Latest Report: Jan 27, 2015 at 1:20 PM


Visibility: N/A

Pressure: 30.07 "Hg

Humidity: 81%

Dew point: 36 °F

Location of MindenLocation

Historic Weather in Minden — Graph

°F

Minden temperature yesterday

Maximum temperature yesterday: 41 °F (at 6:20 PM)
Minimum temperature yesterday: 36 °F (at 12:20 AM)
Average temperature yesterday: 38 °F

Past Weeks' High & Low Weather Summary

 TemperatureHumidityPressure
High54 °F (Jan 13, 1:20 PM)100% (Jan 20, 6:20 AM)30.33 "Hg (Jan 20, 6:20 AM)
Low27 °F (Jan 21, 7:20 AM)58% (Jan 13, 1:20 PM)29.42 "Hg (Jan 15, 2:20 PM)
Average37 °F83%29.93 "Hg
* Reported Jan 12 12:20 PM — Jan 27 12:20 PM, Minden, Weather by CustomWeather, © 2014

Note: Actual official high and low records may vary slightly from our data, if they occured in-between our weather recording intervals... More about our weather records

Advertising

Minden weather history for previous 24 hours

 ConditionsComfort  
Time TempWeatherWind HumidityBarometerVisibility
12:20 PM
Jan 27
41 °FPartly sunny.13 mph81%30.07 "HgN/A
11:20 AM39 °FScattered clouds.14 mph87%30.09 "HgN/A
10:20 AM37 °FPassing clouds.14 mph87%30.09 "HgN/A
9:20 AM37 °FPartly sunny.13 mph87%30.07 "HgN/A
8:20 AM36 °FPartly sunny.12 mph93%30.07 "HgN/A
7:20 AM36 °FPassing clouds.12 mph93%30.04 "HgN/A
6:20 AM37 °FPassing clouds.14 mph87%30.04 "HgN/A
5:20 AM37 °FPassing clouds.13 mph87%30.04 "HgN/A
4:20 AM37 °FPassing clouds.13 mph87%30.04 "HgN/A
3:20 AM37 °FPartly cloudy.17 mph87%30.01 "HgN/A
2:56 AM37 °FSnow flurries. Partly cloudy.12 mph87%30.04 "HgN/A
2:20 AM39 °FPartly cloudy.15 mph87%30.01 "HgN/A
1:20 AM39 °FPartly cloudy.14 mph87%30.01 "HgN/A
12:20 AM39 °FPartly cloudy.14 mph87%30.01 "HgN/A
11:20 PM
Jan 26
39 °FPartly cloudy.13 mph87%29.98 "HgN/A
10:20 PM39 °FPassing clouds.14 mph87%29.98 "HgN/A
9:20 PM41 °FPassing clouds.10 mph87%29.98 "HgN/A
8:20 PM41 °FPartly cloudy.12 mph93%29.95 "HgN/A
7:20 PM41 °FPassing clouds.12 mph93%29.95 "HgN/A
6:20 PM41 °FDrizzle. Fog.13 mph93%29.95 "Hg2 mi
5:20 PM39 °FDrizzle. Fog.12 mph93%29.92 "Hg2 mi
5:00 PM39 °FDrizzle. Fog.12 mph93%29.92 "Hg1 mi
4:51 PM39 °FDrizzle. Fog.12 mph93%29.92 "Hg2 mi
4:20 PM39 °FFog.13 mph93%29.95 "Hg3 mi
3:20 PM39 °FDrizzle. Fog.13 mph93%29.95 "Hg2 mi
2:48 PM39 °FDrizzle. Partly sunny.12 mph93%29.98 "Hg4 mi
2:20 PM39 °FDrizzle. Partly sunny.13 mph93%29.98 "HgN/A
Weather by CustomWeather, © 2014

See weather overviewHow to use our weather pages